Fairfield, PA

5:36 AM EST on December 05, 2016 (GMT -0500)
Fountain Dale

Weather History for KRYT - July, 2013

Change the Weather History Date:

Wednesday, July 10, 2013

  Actual Average (KHGR) Record (KHGR)
Temperature  
Mean Temperature 83 °F 76 °F  
Max Temperature 88 °F 86 °F 93 °F (2007)
Min Temperature 78 °F 66 °F 60 °F (1997)
Degree Days  
Heating Degree Days 0 0  
Month to date heating degree days 0  
Since 1 June heating degree days 18  
Since 1 July heating degree days 0  
Cooling Degree Days 18 11  
Month to date cooling degree days 103  
Year to date cooling degree days 388  
Since 1 June cooling degree days 312  
Growing Degree Days 33 (Base 50)    
Moisture  
Dew Point 68 °F    
Average Humidity 64    
Maximum Humidity 77    
Minimum Humidity 48    
Precipitation  
Precipitation 0.05 in 0.11 in 0.54 in (2000)
Month to date precipitation 0.94  
Year to date precipitation 21.02  
Sea Level Pressure  
Sea Level Pressure 29.91 in    
Wind  
Wind Speed 4 mph (SSW)    
Max Wind Speed 7 mph    
Max Gust Speed 17 mph    
Visibility 9 miles    
Events Rain    
T = Trace of Precipitation, MM = Missing Value Source: NWS Daily Summary

Daily Weather History Graph

Daily Weather History Graph

Search for Another Location

Airport or City:

Trip Planner

Search our weather history database for the weather conditions in past years. The results will help you decide how hot, cold, wet, or windy it might be!

Date:

Astronomy

Jul. 10, 2013 Rise Set
Actual Time 5:50 AM EDT 8:39 PM EDT
Civil Twilight 5:18 AM EDT 9:11 PM EDT
Nautical Twilight 4:38 AM EDT 9:51 PM EDT
Astronomical Twilight 3:52 AM EDT 10:37 PM EDT
Moon 8:09 AM EDT (7/10) 9:48 PM EDT (7/10)
Length of Visible Light 15h 52m
Length of Day
14h 48m
Waxing Crescent, 5% of the Moon is Illuminated
Jul 10
Waxing Crescent
Jul 15
First Quarter
Jul 22
Full
Jul 29
Last Quarter
Aug 6
New

Hourly Weather History & Observations

Time (EDT) Temp. Heat Index Dew Point Humidity Pressure Visibility Wind Dir Wind Speed Gust Speed Precip Events Conditions
12:53 AM 82.0 °F 85.5 °F 69.1 °F 65% 29.95 in 10.0 mi SSW 4.6 mph - N/A   Clear
1:53 AM 82.9 °F 85.4 °F 66.9 °F 58% 29.96 in 10.0 mi Variable 5.8 mph - N/A   Clear
2:53 AM 82.9 °F 85.0 °F 66.0 °F 56% 29.94 in 10.0 mi SSW 5.8 mph - N/A   Clear
3:53 AM 82.0 °F 84.1 °F 66.0 °F 58% 29.94 in 10.0 mi Variable 4.6 mph - N/A   Partly Cloudy
4:53 AM 79.0 °F - 66.9 °F 66% 29.93 in 10.0 mi SSW 3.5 mph - N/A   Clear
5:53 AM 81.0 °F 83.0 °F 66.0 °F 60% 29.93 in 10.0 mi Variable 3.5 mph - N/A   Clear
6:53 AM 81.0 °F 83.0 °F 66.0 °F 60% 29.94 in 10.0 mi Variable 4.6 mph - N/A   Scattered Clouds
7:53 AM 79.0 °F - 68.0 °F 69% 29.95 in 8.0 mi Calm Calm - N/A   Overcast
8:53 AM 80.1 °F 82.9 °F 69.1 °F 69% 29.95 in 10.0 mi Calm Calm - N/A   Partly Cloudy
9:53 AM 81.0 °F 83.8 °F 68.0 °F 65% 29.96 in 10.0 mi Calm Calm - 0.00 in Rain Light Rain
10:53 AM 80.1 °F 82.9 °F 69.1 °F 69% 29.98 in 2.0 mi SSW 5.8 mph - 0.05 in Rain Rain
11:06 AM 78.8 °F - 69.8 °F 74% 30.01 in 6.0 mi Variable 4.6 mph - 0.00 in Rain Light Rain
11:53 AM 81.0 °F 84.4 °F 70.0 °F 69% 29.94 in 9.0 mi SSW 4.6 mph - 0.00 in   Clear
12:53 PM 84.9 °F 90.1 °F 71.1 °F 63% 29.91 in 10.0 mi Variable 6.9 mph 17.3 mph N/A   Clear
1:53 PM 87.1 °F 92.0 °F 70.0 °F 57% 29.88 in 10.0 mi Variable 6.9 mph - N/A   Clear
3:53 PM 84.0 °F 85.4 °F 64.0 °F 51% 29.85 in 10.0 mi Variable 6.9 mph - N/A   Clear
4:53 PM 88.0 °F 90.3 °F 66.0 °F 48% 29.82 in 10.0 mi Variable 6.9 mph - N/A   Clear
5:53 PM 87.1 °F 90.6 °F 68.0 °F 53% 29.83 in 10.0 mi Variable 4.6 mph - N/A   Clear
6:53 PM 84.9 °F 88.8 °F 69.1 °F 59% 29.84 in 10.0 mi SSW 4.6 mph - N/A   Clear
7:53 PM 82.0 °F 86.3 °F 71.1 °F 69% 29.86 in 10.0 mi Calm Calm - N/A   Clear
8:53 PM 79.0 °F - 71.1 °F 77% 29.86 in 10.0 mi Calm Calm - N/A   Clear
9:53 PM 80.1 °F 83.2 °F 70.0 °F 71% 29.85 in 10.0 mi SSW 4.6 mph - N/A   Mostly Cloudy
10:53 PM 79.0 °F - 71.1 °F 77% 29.86 in 10.0 mi SW 4.6 mph - N/A   Mostly Cloudy
11:53 PM 81.0 °F 83.8 °F 68.0 °F 65% 29.83 in 10.0 mi Calm Calm - N/A   Clear